Time,TemperatureF,DewpointF,PressureIn,WindDirection,WindDirectionDegrees,WindSpeedMPH,WindSpeedGustMPH,Humidity,HourlyPrecipIn,Conditions,Clouds,dailyrainin,SoftwareType,DateUTC
2013-01-30 00:00:00,64.6,59.3,29.88,ESE,113,3.8,8.1,83,0.00,,,0.00,WUHU216HW,2013-01-30 05:00:00,
2013-01-30 00:01:00,64.6,59.3,29.88,SE,135,5.4,8.1,83,0.00,,,0.00,WUHU216HW,2013-01-30 05:01:00,
2013-01-30 00:03:00,64.6,59.1,29.88,South,180,5.8,8.1,82,0.00,,,0.00,WUHU216HW,2013-01-30 05:03:00,
2013-01-30 00:08:00,64.6,59.3,29.88,SSW,203,9.2,10.5,83,0.00,,,0.00,WUHU216HW,2013-01-30 05:08:00,
2013-01-30 00:13:00,64.8,59.9,29.88,SSE,158,2.5,10.5,84,0.00,,,0.00,WUHU216HW,2013-01-30 05:13:00,
2013-01-30 00:18:00,64.8,59.5,29.88,SW,225,3.8,10.1,83,0.00,,,0.00,WUHU216HW,2013-01-30 05:18:00,
2013-01-30 00:23:00,64.8,59.5,29.89,South,180,4.5,8.1,83,0.00,,,0.00,WUHU216HW,2013-01-30 05:23:00,
2013-01-30 00:28:00,64.6,59.3,29.88,SE,135,4.9,9.8,83,0.00,,,0.00,WUHU216HW,2013-01-30 05:28:00,
2013-01-30 00:33:00,64.6,59.3,29.88,SSW,203,4.3,9.8,83,0.00,,,0.00,WUHU216HW,2013-01-30 05:33:00,
2013-01-30 00:38:00,64.4,59.1,29.88,ENE,68,3.8,10.1,83,0.00,,,0.00,WUHU216HW,2013-01-30 05:38:00,
2013-01-30 00:43:00,64.4,59.1,29.88,South,180,3.8,10.1,83,0.00,,,0.00,WUHU216HW,2013-01-30 05:43:00,
2013-01-30 00:48:00,64.4,59.1,29.87,SSW,203,1.3,7.8,83,0.00,,,0.00,WUHU216HW,2013-01-30 05:48:00,
2013-01-30 00:53:00,64.4,59.1,29.87,SE,135,4.7,7.4,83,0.00,,,0.00,WUHU216HW,2013-01-30 05:53:00,
2013-01-30 00:58:00,64.4,59.1,29.87,SSE,158,3.1,7.6,83,0.00,,,0.00,WUHU216HW,2013-01-30 05:58:00,
2013-01-30 01:03:00,64.3,59.0,29.86,SSE,158,1.1,7.6,83,0.00,,,0.00,WUHU216HW,2013-01-30 06:03:00,
2013-01-30 01:08:00,64.1,58.8,29.86,South,180,6.3,6.3,83,0.00,,,0.00,WUHU216HW,2013-01-30 06:08:00,
2013-01-30 01:13:00,64.1,59.1,29.86,ESE,113,4.3,9.2,84,0.00,,,0.00,WUHU216HW,2013-01-30 06:13:00,
2013-01-30 01:18:00,64.1,59.1,29.86,SSW,203,3.4,9.2,84,0.00,,,0.00,WUHU216HW,2013-01-30 06:18:00,
2013-01-30 01:23:00,64.1,59.1,29.86,SE,135,2.9,9.2,84,0.00,,,0.00,WUHU216HW,2013-01-30 06:23:00,
2013-01-30 01:28:00,64.1,59.5,29.86,SSW,203,2.0,9.2,85,0.00,,,0.00,WUHU216HW,2013-01-30 06:28:00,
2013-01-30 01:33:00,64.1,59.1,29.86,SSW,203,5.1,9.2,84,0.00,,,0.00,WUHU216HW,2013-01-30 06:33:00,
2013-01-30 01:38:00,64.1,59.5,29.85,SSW,203,4.5,6.5,85,0.00,,,0.00,WUHU216HW,2013-01-30 06:38:00,
2013-01-30 01:43:00,64.1,59.1,29.85,SSW,203,2.0,6.5,84,0.00,,,0.00,WUHU216HW,2013-01-30 06:43:00,
2013-01-30 01:48:00,64.1,59.5,29.85,SSE,158,2.9,9.2,85,0.00,,,0.00,WUHU216HW,2013-01-30 06:48:00,
2013-01-30 01:53:00,64.1,59.5,29.85,SSW,203,4.0,9.2,85,0.00,,,0.00,WUHU216HW,2013-01-30 06:53:00,
2013-01-30 01:58:00,64.1,59.5,29.84,SSW,203,4.5,7.6,85,0.00,,,0.00,WUHU216HW,2013-01-30 06:58:00,
2013-01-30 02:03:00,64.1,59.5,29.84,SSW,203,9.2,9.2,85,0.00,,,0.00,WUHU216HW,2013-01-30 07:03:00,
2013-01-30 02:08:00,64.1,59.5,29.84,SSW,203,6.3,9.2,85,0.00,,,0.00,WUHU216HW,2013-01-30 07:08:00,
2013-01-30 02:13:00,64.1,59.5,29.84,West,270,2.5,9.2,85,0.00,,,0.00,WUHU216HW,2013-01-30 07:13:00,
2013-01-30 02:18:00,64.1,59.5,29.83,South,180,2.0,7.4,85,0.00,,,0.00,WUHU216HW,2013-01-30 07:18:00,
2013-01-30 02:23:00,64.1,59.5,29.84,WSW,248,2.2,7.4,85,0.00,,,0.00,WUHU216HW,2013-01-30 07:23:00,
2013-01-30 02:28:00,64.1,59.5,29.83,SW,225,1.6,7.4,85,0.00,,,0.00,WUHU216HW,2013-01-30 07:28:00,
2013-01-30 02:33:00,64.1,59.5,29.83,South,180,2.0,7.6,85,0.00,,,0.00,WUHU216HW,2013-01-30 07:33:00,
2013-01-30 02:38:00,63.9,59.3,29.83,SSW,203,1.8,7.6,85,0.00,,,0.00,WUHU216HW,2013-01-30 07:38:00,
2013-01-30 02:43:00,63.9,59.3,29.83,ENE,68,3.1,5.4,85,0.00,,,0.00,WUHU216HW,2013-01-30 07:43:00,
2013-01-30 02:48:00,63.9,59.3,29.83,West,270,3.6,7.6,85,0.00,,,0.00,WUHU216HW,2013-01-30 07:48:00,
2013-01-30 02:53:00,63.9,59.3,29.82,SSW,203,3.4,7.6,85,0.00,,,0.00,WUHU216HW,2013-01-30 07:53:00,
2013-01-30 02:58:00,63.7,59.1,29.82,SE,135,1.8,7.6,85,0.00,,,0.00,WUHU216HW,2013-01-30 07:58:00,
2013-01-30 03:03:00,63.7,59.1,29.82,SSW,203,3.4,6.0,85,0.00,,,0.00,WUHU216HW,2013-01-30 08:03:00,
2013-01-30 03:08:00,63.7,59.1,29.82,South,180,1.8,6.0,85,0.00,,,0.00,WUHU216HW,2013-01-30 08:08:00,
2013-01-30 03:13:00,63.7,59.1,29.82,NNW,338,2.5,4.7,85,0.00,,,0.00,WUHU216HW,2013-01-30 08:13:00,
2013-01-30 03:18:00,63.7,59.5,29.82,South,180,7.4,8.5,86,0.00,,,0.00,WUHU216HW,2013-01-30 08:18:00,
2013-01-30 03:23:00,63.7,59.5,29.81,SE,135,2.5,12.8,86,0.00,,,0.00,WUHU216HW,2013-01-30 08:23:00,
2013-01-30 03:28:00,63.7,59.5,29.81,South,180,2.2,12.8,86,0.00,,,0.00,WUHU216HW,2013-01-30 08:28:00,
2013-01-30 03:33:00,63.7,59.5,29.81,South,180,4.7,8.9,86,0.00,,,0.00,WUHU216HW,2013-01-30 08:33:00,
2013-01-30 03:38:00,63.7,59.5,29.81,SW,225,1.1,7.6,86,0.00,,,0.00,WUHU216HW,2013-01-30 08:38:00,
2013-01-30 03:43:00,63.7,59.5,29.80,South,180,2.0,8.9,86,0.00,,,0.00,WUHU216HW,2013-01-30 08:43:00,
2013-01-30 03:48:00,63.7,59.5,29.80,North,0,4.7,8.9,86,0.00,,,0.00,WUHU216HW,2013-01-30 08:48:00,
2013-01-30 03:53:00,63.7,59.1,29.80,South,180,1.8,6.7,85,0.00,,,0.00,WUHU216HW,2013-01-30 08:53:00,
2013-01-30 03:58:00,63.5,59.3,29.80,SSW,203,4.0,8.1,86,0.00,,,0.00,WUHU216HW,2013-01-30 08:58:00,
2013-01-30 04:03:00,63.5,59.3,29.79,South,180,1.8,8.1,86,0.00,,,0.00,WUHU216HW,2013-01-30 09:03:00,
2013-01-30 04:08:00,63.5,59.3,29.79,SSW,203,3.1,7.2,86,0.00,,,0.00,WUHU216HW,2013-01-30 09:08:00,
2013-01-30 04:13:00,63.5,59.3,29.79,SW,225,1.8,7.6,86,0.00,,,0.00,WUHU216HW,2013-01-30 09:13:00,
2013-01-30 04:18:00,63.5,59.3,29.78,South,180,1.8,7.6,86,0.00,,,0.00,WUHU216HW,2013-01-30 09:18:00,
2013-01-30 04:23:00,63.4,59.1,29.78,SE,135,2.2,5.8,86,0.00,,,0.00,WUHU216HW,2013-01-30 09:23:00,
2013-01-30 04:28:00,63.4,59.1,29.78,South,180,2.7,9.6,86,0.00,,,0.00,WUHU216HW,2013-01-30 09:28:00,
2013-01-30 04:33:00,63.4,59.1,29.78,SW,225,6.5,9.6,86,0.00,,,0.00,WUHU216HW,2013-01-30 09:33:00,
2013-01-30 04:38:00,63.4,59.1,29.79,SSW,203,4.9,8.5,86,0.00,,,0.00,WUHU216HW,2013-01-30 09:38:00,
2013-01-30 04:43:00,63.4,59.5,29.79,SSW,203,10.1,10.1,87,0.00,,,0.00,WUHU216HW,2013-01-30 09:43:00,
2013-01-30 04:48:00,63.4,59.1,29.78,ESE,113,2.5,10.1,86,0.00,,,0.00,WUHU216HW,2013-01-30 09:48:00,
2013-01-30 04:53:00,63.4,59.5,29.78,East,90,4.0,10.1,87,0.00,,,0.00,WUHU216HW,2013-01-30 09:53:00,
2013-01-30 04:58:00,63.4,59.1,29.77,SE,135,2.7,9.6,86,0.00,,,0.00,WUHU216HW,2013-01-30 09:58:00,
2013-01-30 05:03:00,63.4,59.1,29.77,WSW,248,2.5,10.1,86,0.00,,,0.00,WUHU216HW,2013-01-30 10:03:00,
2013-01-30 05:08:00,63.4,59.5,29.77,ENE,68,2.5,10.1,87,0.00,,,0.00,WUHU216HW,2013-01-30 10:08:00,
2013-01-30 05:13:00,63.4,59.5,29.76,SSW,203,2.9,5.8,87,0.00,,,0.00,WUHU216HW,2013-01-30 10:13:00,
2013-01-30 05:18:00,63.4,59.5,29.76,South,180,1.8,5.8,87,0.00,,,0.00,WUHU216HW,2013-01-30 10:18:00,
2013-01-30 05:23:00,63.4,59.5,29.76,ESE,113,1.1,7.6,87,0.00,,,0.00,WUHU216HW,2013-01-30 10:23:00,
2013-01-30 05:28:00,63.4,59.1,29.76,SSE,158,6.5,7.6,86,0.00,,,0.00,WUHU216HW,2013-01-30 10:28:00,
2013-01-30 05:33:00,63.4,59.1,29.76,NW,315,8.7,8.7,86,0.00,,,0.00,WUHU216HW,2013-01-30 10:33:00,
2013-01-30 05:38:00,63.5,59.3,29.76,SW,225,3.1,8.7,86,0.00,,,0.00,WUHU216HW,2013-01-30 10:38:00,
2013-01-30 05:43:00,63.5,59.3,29.76,SSW,203,2.0,12.1,86,0.00,,,0.00,WUHU216HW,2013-01-30 10:43:00,
2013-01-30 05:48:00,63.7,59.1,29.76,East,90,3.4,12.1,85,0.00,,,0.00,WUHU216HW,2013-01-30 10:48:00,
2013-01-30 05:53:00,63.7,59.1,29.75,ESE,113,2.2,9.6,85,0.00,,,0.00,WUHU216HW,2013-01-30 10:53:00,
2013-01-30 05:58:00,63.7,59.1,29.75,South,180,10.3,12.3,85,0.00,,,0.00,WUHU216HW,2013-01-30 10:58:00,
2013-01-30 06:03:00,63.7,59.1,29.76,ESE,113,4.0,12.3,85,0.00,,,0.00,WUHU216HW,2013-01-30 11:03:00,
2013-01-30 06:08:00,63.9,59.3,29.76,SW,225,4.0,10.3,85,0.00,,,0.00,WUHU216HW,2013-01-30 11:08:00,
2013-01-30 06:13:00,63.9,59.3,29.76,SSW,203,8.3,14.3,85,0.00,,,0.00,WUHU216HW,2013-01-30 11:13:00,
2013-01-30 06:18:00,63.9,59.3,29.75,West,270,4.0,14.3,85,0.00,,,0.00,WUHU216HW,2013-01-30 11:18:00,
2013-01-30 06:23:00,63.9,59.3,29.75,ESE,113,4.5,12.8,85,0.00,,,0.00,WUHU216HW,2013-01-30 11:23:00,
2013-01-30 06:28:00,64.1,59.5,29.75,SE,135,6.3,10.7,85,0.00,,,0.00,WUHU216HW,2013-01-30 11:28:00,
2013-01-30 06:33:00,64.1,59.5,29.75,SW,225,7.4,11.4,85,0.00,,,0.00,WUHU216HW,2013-01-30 11:33:00,
2013-01-30 06:38:00,64.1,59.5,29.74,SE,135,8.5,11.4,85,0.00,,,0.00,WUHU216HW,2013-01-30 11:38:00,
2013-01-30 06:43:00,64.1,59.5,29.74,West,270,4.7,16.3,85,0.00,,,0.00,WUHU216HW,2013-01-30 11:43:00,
2013-01-30 06:48:00,64.1,59.5,29.74,West,270,6.5,16.3,85,0.00,,,0.00,WUHU216HW,2013-01-30 11:48:00,
2013-01-30 06:53:00,64.1,59.5,29.74,South,180,5.6,13.2,85,0.00,,,0.00,WUHU216HW,2013-01-30 11:53:00,
2013-01-30 06:58:00,63.9,59.3,29.74,South,180,4.3,15.4,85,0.00,,,0.00,WUHU216HW,2013-01-30 11:58:00,
2013-01-30 07:03:00,63.9,59.3,29.74,SSW,203,6.3,15.4,85,0.00,,,0.00,WUHU216HW,2013-01-30 12:03:00,
2013-01-30 07:08:00,64.1,59.9,29.73,SSW,203,12.1,12.3,86,0.00,,,0.00,WUHU216HW,2013-01-30 12:08:00,
2013-01-30 07:13:00,64.1,59.9,29.73,SSW,203,9.8,12.1,86,0.00,,,0.00,WUHU216HW,2013-01-30 12:13:00,
2013-01-30 07:18:00,64.1,59.9,29.73,SSW,203,8.1,11.2,86,0.00,,,0.00,WUHU216HW,2013-01-30 12:18:00,
2013-01-30 07:23:00,64.1,59.9,29.73,NNW,338,5.1,11.2,86,0.00,,,0.00,WUHU216HW,2013-01-30 12:23:00,
2013-01-30 07:28:00,64.1,60.2,29.73,SW,225,6.0,10.3,87,0.00,,,0.00,WUHU216HW,2013-01-30 12:28:00,
2013-01-30 07:33:00,64.1,60.2,29.73,SSW,203,7.4,10.3,87,0.00,,,0.00,WUHU216HW,2013-01-30 12:33:00,
2013-01-30 07:38:00,64.1,60.2,29.73,SW,225,6.3,9.8,87,0.00,,,0.00,WUHU216HW,2013-01-30 12:38:00,
2013-01-30 07:43:00,64.1,60.2,29.72,SSW,203,8.3,10.5,87,0.00,,,0.00,WUHU216HW,2013-01-30 12:43:00,
2013-01-30 07:48:00,64.1,60.2,29.72,ESE,113,13.2,13.2,87,0.00,,,0.00,WUHU216HW,2013-01-30 12:48:00,
2013-01-30 07:53:00,64.1,60.2,29.72,East,90,4.7,13.2,87,0.00,,,0.00,WUHU216HW,2013-01-30 12:53:00,
2013-01-30 07:58:00,64.3,60.4,29.72,SSE,158,5.4,6.9,87,0.00,,,0.00,WUHU216HW,2013-01-30 12:58:00,
2013-01-30 08:03:00,64.3,60.4,29.72,SW,225,9.2,11.2,87,0.00,,,0.00,WUHU216HW,2013-01-30 13:03:00,
2013-01-30 08:08:00,64.4,60.2,29.72,SSW,203,7.8,11.2,86,0.00,,,0.00,WUHU216HW,2013-01-30 13:08:00,
2013-01-30 08:13:00,64.6,60.4,29.71,SW,225,8.9,16.8,86,0.00,,,0.00,WUHU216HW,2013-01-30 13:13:00,
2013-01-30 08:18:00,64.6,60.0,29.71,SSW,203,8.7,16.8,85,0.00,,,0.00,WUHU216HW,2013-01-30 13:18:00,
2013-01-30 08:23:00,64.8,60.2,29.71,SSW,203,5.4,12.1,85,0.00,,,0.00,WUHU216HW,2013-01-30 13:23:00,
2013-01-30 08:28:00,64.8,60.2,29.71,SSE,158,11.0,11.4,85,0.00,,,0.00,WUHU216HW,2013-01-30 13:28:00,
2013-01-30 08:33:00,64.8,60.2,29.71,South,180,13.0,15.7,85,0.00,,,0.00,WUHU216HW,2013-01-30 13:33:00,
2013-01-30 08:38:00,65.0,60.4,29.71,SSW,203,8.1,17.4,85,0.00,,,0.00,WUHU216HW,2013-01-30 13:38:00,
2013-01-30 08:43:00,65.2,60.6,29.71,WSW,248,4.3,17.4,85,0.00,,,0.00,WUHU216HW,2013-01-30 13:43:00,
2013-01-30 08:48:00,65.2,60.6,29.71,SSW,203,8.1,15.0,85,0.00,,,0.00,WUHU216HW,2013-01-30 13:48:00,
2013-01-30 08:53:00,65.3,61.0,29.71,WSW,248,7.4,15.0,86,0.00,,,0.00,WUHU216HW,2013-01-30 13:53:00,
2013-01-30 08:58:00,65.5,60.8,29.71,SW,225,11.0,21.3,85,0.00,,,0.00,WUHU216HW,2013-01-30 13:58:00,
2013-01-30 09:03:00,65.7,61.0,29.71,SW,225,7.4,21.3,85,0.00,,,0.00,WUHU216HW,2013-01-30 14:03:00,
2013-01-30 09:08:00,66.1,61.0,29.71,SSW,203,4.7,14.3,84,0.00,,,0.00,WUHU216HW,2013-01-30 14:08:00,
2013-01-30 09:13:00,66.2,61.2,29.71,South,180,13.0,14.3,84,0.00,,,0.00,WUHU216HW,2013-01-30 14:13:00,
2013-01-30 09:18:00,66.2,61.2,29.71,SSW,203,15.2,15.2,84,0.00,,,0.00,WUHU216HW,2013-01-30 14:18:00,
2013-01-30 09:23:00,66.2,61.2,29.71,South,180,11.0,15.2,84,0.00,,,0.00,WUHU216HW,2013-01-30 14:23:00,
2013-01-30 09:28:00,66.2,60.9,29.70,SSW,203,7.8,13.2,83,0.00,,,0.00,WUHU216HW,2013-01-30 14:28:00,
2013-01-30 09:33:00,66.6,61.3,29.70,SSE,158,8.7,13.2,83,0.00,,,0.00,WUHU216HW,2013-01-30 14:33:00,
2013-01-30 09:38:00,66.4,61.1,29.70,SSW,203,12.5,12.5,83,0.00,,,0.00,WUHU216HW,2013-01-30 14:38:00,
2013-01-30 09:43:00,66.6,61.3,29.70,East,90,6.0,15.7,83,0.00,,,0.00,WUHU216HW,2013-01-30 14:43:00,
2013-01-30 09:48:00,66.6,61.3,29.70,WNW,293,6.7,15.7,83,0.00,,,0.00,WUHU216HW,2013-01-30 14:48:00,
2013-01-30 09:53:00,66.8,61.5,29.70,South,180,9.4,12.3,83,0.00,,,0.00,WUHU216HW,2013-01-30 14:53:00,
2013-01-30 09:58:00,67.3,61.7,29.69,NE,45,7.2,12.3,82,0.00,,,0.00,WUHU216HW,2013-01-30 14:58:00,
2013-01-30 10:03:00,68.0,61.7,29.69,ENE,68,4.7,12.3,80,0.00,,,0.00,WUHU216HW,2013-01-30 15:03:00,
2013-01-30 10:08:00,68.2,61.9,29.69,SSW,203,14.5,14.5,80,0.00,,,0.00,WUHU216HW,2013-01-30 15:08:00,
2013-01-30 10:13:00,68.0,61.7,29.68,SW,225,10.5,14.5,80,0.00,,,0.00,WUHU216HW,2013-01-30 15:13:00,
2013-01-30 10:18:00,68.4,61.7,29.68,South,180,3.8,12.5,79,0.00,,,0.00,WUHU216HW,2013-01-30 15:18:00,
2013-01-30 10:23:00,68.4,61.3,29.68,West,270,8.5,12.5,78,0.00,,,0.00,WUHU216HW,2013-01-30 15:23:00,
2013-01-30 10:28:00,68.2,61.1,29.68,South,180,9.2,15.7,78,0.00,,,0.00,WUHU216HW,2013-01-30 15:28:00,
2013-01-30 10:33:00,68.2,61.1,29.68,SW,225,8.5,17.4,78,0.00,,,0.00,WUHU216HW,2013-01-30 15:33:00,
2013-01-30 10:38:00,68.0,61.0,29.67,SW,225,9.2,17.4,78,0.00,,,0.00,WUHU216HW,2013-01-30 15:38:00,
2013-01-30 10:43:00,68.4,60.9,29.67,South,180,13.9,13.9,77,0.00,,,0.00,WUHU216HW,2013-01-30 15:43:00,
2013-01-30 10:48:00,68.2,60.8,29.67,SSW,203,10.5,13.9,77,0.00,,,0.00,WUHU216HW,2013-01-30 15:48:00,
2013-01-30 10:53:00,68.2,60.8,29.67,South,180,7.4,12.5,77,0.00,,,0.00,WUHU216HW,2013-01-30 15:53:00,
2013-01-30 10:58:00,68.2,60.8,29.67,West,270,5.6,12.5,77,0.00,,,0.00,WUHU216HW,2013-01-30 15:58:00,
2013-01-30 11:03:00,68.6,61.1,29.67,SSW,203,6.3,16.6,77,0.00,,,0.00,WUHU216HW,2013-01-30 16:03:00,
2013-01-30 11:08:00,68.6,61.1,29.66,East,90,8.9,16.6,77,0.00,,,0.00,WUHU216HW,2013-01-30 16:08:00,
2013-01-30 11:13:00,68.6,61.1,29.66,WSW,248,9.4,13.6,77,0.00,,,0.00,WUHU216HW,2013-01-30 16:13:00,
2013-01-30 11:18:00,68.6,61.1,29.66,WSW,248,7.4,13.6,77,0.00,,,0.00,WUHU216HW,2013-01-30 16:18:00,
2013-01-30 11:23:00,68.4,60.9,29.65,SSW,203,9.8,10.5,77,0.00,,,0.00,WUHU216HW,2013-01-30 16:23:00,
2013-01-30 11:28:00,68.4,60.9,29.65,SSE,158,7.6,12.8,77,0.00,,,0.00,WUHU216HW,2013-01-30 16:28:00,
2013-01-30 11:33:00,68.4,60.9,29.65,SW,225,6.3,12.8,77,0.00,,,0.00,WUHU216HW,2013-01-30 16:33:00,
2013-01-30 11:38:00,68.2,60.8,29.65,NNE,23,6.7,17.9,77,0.00,,,0.00,WUHU216HW,2013-01-30 16:38:00,
2013-01-30 11:43:00,68.4,60.9,29.64,SE,135,4.7,17.9,77,0.00,,,0.00,WUHU216HW,2013-01-30 16:43:00,
2013-01-30 11:48:00,68.4,60.9,29.64,SW,225,4.3,12.1,77,0.00,,,0.00,WUHU216HW,2013-01-30 16:48:00,
2013-01-30 11:53:00,68.6,61.1,29.63,South,180,7.8,12.1,77,0.00,,,0.00,WUHU216HW,2013-01-30 16:53:00,
2013-01-30 11:58:00,68.8,61.3,29.63,North,0,4.5,11.0,77,0.00,,,0.00,WUHU216HW,2013-01-30 16:58:00,
2013-01-30 12:03:00,68.9,61.4,29.62,South,180,14.3,15.0,77,0.00,,,0.00,WUHU216HW,2013-01-30 17:03:00,
2013-01-30 12:08:00,68.8,61.3,29.62,South,180,11.4,15.0,77,0.00,,,0.00,WUHU216HW,2013-01-30 17:08:00,
2013-01-30 12:13:00,68.8,61.3,29.62,SSE,158,9.8,14.3,77,0.00,,,0.00,WUHU216HW,2013-01-30 17:13:00,
2013-01-30 12:18:00,68.6,61.1,29.61,SSW,203,10.3,14.3,77,0.00,,,0.00,WUHU216HW,2013-01-30 17:18:00,
2013-01-30 12:23:00,68.6,61.1,29.61,South,180,8.9,14.3,77,0.00,,,0.00,WUHU216HW,2013-01-30 17:23:00,
2013-01-30 12:28:00,68.8,61.3,29.61,SW,225,7.4,16.1,77,0.00,,,0.00,WUHU216HW,2013-01-30 17:28:00,
2013-01-30 12:33:00,68.8,61.3,29.60,WNW,293,5.8,16.1,77,0.00,,,0.00,WUHU216HW,2013-01-30 17:33:00,
2013-01-30 12:38:00,68.8,61.3,29.60,SW,225,8.5,9.8,77,0.00,,,0.00,WUHU216HW,2013-01-30 17:38:00,
2013-01-30 12:43:00,68.8,61.3,29.59,SSW,203,16.6,16.6,77,0.00,,,0.00,WUHU216HW,2013-01-30 17:43:00,
2013-01-30 12:48:00,68.8,61.3,29.59,SW,225,6.3,16.6,77,0.00,,,0.00,WUHU216HW,2013-01-30 17:48:00,
2013-01-30 12:53:00,68.8,61.3,29.59,SSE,158,4.0,12.8,77,0.00,,,0.00,WUHU216HW,2013-01-30 17:53:00,
2013-01-30 12:58:00,68.9,61.4,29.59,SSE,158,7.4,11.9,77,0.00,,,0.00,WUHU216HW,2013-01-30 17:58:00,
2013-01-30 13:03:00,68.9,61.4,29.57,SSW,203,6.9,11.6,77,0.00,,,0.00,WUHU216HW,2013-01-30 18:03:00,
2013-01-30 13:08:00,68.9,61.4,29.57,ENE,68,3.6,10.7,77,0.00,,,0.00,WUHU216HW,2013-01-30 18:08:00,
2013-01-30 13:13:00,68.8,61.3,29.57,East,90,8.5,11.2,77,0.00,,,0.00,WUHU216HW,2013-01-30 18:13:00,
2013-01-30 13:18:00,68.8,61.3,29.56,SSW,203,3.4,11.2,77,0.00,,,0.00,WUHU216HW,2013-01-30 18:18:00,
2013-01-30 13:23:00,68.8,61.3,29.56,SSE,158,6.3,10.5,77,0.00,,,0.00,WUHU216HW,2013-01-30 18:23:00,
2013-01-30 13:28:00,68.8,61.3,29.56,WSW,248,7.6,10.3,77,0.00,,,0.00,WUHU216HW,2013-01-30 18:28:00,
2013-01-30 13:33:00,68.6,61.5,29.56,SSE,158,8.7,10.3,78,0.00,,,0.00,WUHU216HW,2013-01-30 18:33:00,
2013-01-30 13:38:00,68.4,61.7,29.55,NNW,338,4.9,10.1,79,0.00,,,0.00,WUHU216HW,2013-01-30 18:38:00,
2013-01-30 13:43:00,68.2,61.6,29.54,SW,225,4.0,10.1,79,0.00,,,0.00,WUHU216HW,2013-01-30 18:43:00,
2013-01-30 13:48:00,68.2,61.6,29.54,SSE,158,3.4,12.3,79,0.00,,,0.00,WUHU216HW,2013-01-30 18:48:00,
2013-01-30 13:53:00,68.2,61.6,29.54,SE,135,3.4,12.3,79,0.00,,,0.00,WUHU216HW,2013-01-30 18:53:00,
2013-01-30 13:58:00,68.4,61.7,29.53,East,90,7.4,9.8,79,0.00,,,0.00,WUHU216HW,2013-01-30 18:58:00,
2013-01-30 14:03:00,68.4,61.7,29.53,ENE,68,7.4,13.9,79,0.00,,,0.00,WUHU216HW,2013-01-30 19:03:00,
2013-01-30 14:08:00,68.4,61.7,29.53,SSW,203,11.4,13.9,79,0.00,,,0.00,WUHU216HW,2013-01-30 19:08:00,
2013-01-30 14:13:00,68.2,61.6,29.52,SSW,203,8.3,12.8,79,0.00,,,0.00,WUHU216HW,2013-01-30 19:13:00,
2013-01-30 14:18:00,68.0,61.4,29.52,WNW,293,12.1,15.2,79,0.00,,,0.00,WUHU216HW,2013-01-30 19:18:00,
2013-01-30 14:23:00,68.2,61.6,29.52,East,90,3.1,15.2,79,0.00,,,0.00,WUHU216HW,2013-01-30 19:23:00,
2013-01-30 14:28:00,68.2,61.1,29.52,South,180,6.0,11.9,78,0.00,,,0.00,WUHU216HW,2013-01-30 19:28:00,
2013-01-30 14:33:00,68.4,61.3,29.51,SSW,203,4.5,8.3,78,0.00,,,0.00,WUHU216HW,2013-01-30 19:33:00,
2013-01-30 14:38:00,68.4,61.7,29.51,SW,225,3.4,11.6,79,0.00,,,0.00,WUHU216HW,2013-01-30 19:38:00,
2013-01-30 14:43:00,68.0,61.7,29.51,SSE,158,1.8,11.6,80,0.00,,,0.00,WUHU216HW,2013-01-30 19:43:00,
2013-01-30 14:48:00,67.9,61.6,29.50,SSW,203,5.6,10.1,80,0.00,,,0.00,WUHU216HW,2013-01-30 19:48:00,
2013-01-30 14:53:00,68.4,62.4,29.49,South,180,7.8,17.2,81,0.00,,,0.00,WUHU216HW,2013-01-30 19:53:00,
2013-01-30 14:58:00,68.8,62.0,29.49,SSW,203,6.0,17.2,79,0.00,,,0.00,WUHU216HW,2013-01-30 19:58:00,
2013-01-30 15:03:00,68.8,62.0,29.48,SSW,203,5.4,11.4,79,0.00,,,0.00,WUHU216HW,2013-01-30 20:03:00,
2013-01-30 15:08:00,68.9,61.8,29.48,SW,225,8.5,11.4,78,0.00,,,0.00,WUHU216HW,2013-01-30 20:08:00,
2013-01-30 15:13:00,69.1,61.6,29.47,ESE,113,7.2,10.5,77,0.00,,,0.00,WUHU216HW,2013-01-30 20:13:00,
2013-01-30 15:18:00,69.1,61.6,29.47,SE,135,3.4,7.2,77,0.00,,,0.00,WUHU216HW,2013-01-30 20:18:00,
2013-01-30 15:23:00,69.1,61.6,29.47,SE,135,1.8,8.5,77,0.00,,,0.00,WUHU216HW,2013-01-30 20:23:00,
2013-01-30 15:28:00,68.9,61.4,29.46,SE,135,3.4,8.5,77,0.00,,,0.00,WUHU216HW,2013-01-30 20:28:00,
2013-01-30 15:33:00,68.9,61.4,29.46,ESE,113,4.5,7.6,77,0.00,,,0.00,WUHU216HW,2013-01-30 20:33:00,
2013-01-30 15:38:00,69.1,61.6,29.46,East,90,6.9,6.9,77,0.00,,,0.00,WUHU216HW,2013-01-30 20:38:00,
2013-01-30 15:43:00,69.1,61.6,29.45,NE,45,4.0,8.7,77,0.00,,,0.00,WUHU216HW,2013-01-30 20:43:00,
2013-01-30 15:48:00,69.3,61.7,29.45,SSW,203,5.1,11.0,77,0.00,,,0.00,WUHU216HW,2013-01-30 20:48:00,
2013-01-30 15:53:00,69.5,61.9,29.44,South,180,7.6,11.0,77,0.00,,,0.00,WUHU216HW,2013-01-30 20:53:00,
2013-01-30 15:58:00,69.3,61.7,29.44,SSW,203,3.4,7.6,77,0.00,,,0.00,WUHU216HW,2013-01-30 20:58:00,
2013-01-30 16:03:00,69.3,61.7,29.44,East,90,3.4,8.1,77,0.00,,,0.00,WUHU216HW,2013-01-30 21:03:00,
2013-01-30 16:08:00,69.1,61.6,29.44,SSW,203,5.4,8.1,77,0.00,,,0.00,WUHU216HW,2013-01-30 21:08:00,
2013-01-30 16:13:00,69.3,61.7,29.43,NE,45,3.8,9.2,77,0.00,,,0.00,WUHU216HW,2013-01-30 21:13:00,
2013-01-30 16:18:00,69.3,61.7,29.42,North,0,4.7,13.6,77,0.00,,,0.00,WUHU216HW,2013-01-30 21:18:00,
2013-01-30 16:23:00,69.3,61.7,29.43,East,90,4.9,13.6,77,0.00,,,0.00,WUHU216HW,2013-01-30 21:23:00,
2013-01-30 16:28:00,69.1,61.9,29.43,SSE,158,2.7,12.8,78,0.00,,,0.00,WUHU216HW,2013-01-30 21:28:00,
2013-01-30 16:33:00,68.8,62.0,29.42,SSE,158,5.6,13.9,79,0.00,,,0.00,WUHU216HW,2013-01-30 21:33:00,
2013-01-30 16:38:00,68.4,62.1,29.41,North,0,3.1,13.9,80,0.00,,,0.00,WUHU216HW,2013-01-30 21:38:00,
2013-01-30 16:43:00,68.0,62.1,29.40,ENE,68,2.5,9.2,81,0.00,,,0.00,WUHU216HW,2013-01-30 21:43:00,
2013-01-30 16:48:00,67.7,62.0,29.40,East,90,4.0,9.8,82,0.00,,,0.00,WUHU216HW,2013-01-30 21:48:00,
2013-01-30 16:53:00,67.5,62.2,29.40,NE,45,3.4,12.1,83,0.00,,,0.00,WUHU216HW,2013-01-30 21:53:00,
2013-01-30 16:58:00,67.1,62.1,29.39,SSW,203,3.8,12.1,84,0.01,,,0.01,WUHU216HW,2013-01-30 21:58:00,
2013-01-30 17:03:00,66.6,61.9,29.39,South,180,4.0,8.9,85,0.03,,,0.03,WUHU216HW,2013-01-30 22:03:00,
2013-01-30 17:08:00,66.2,62.2,29.39,West,270,2.5,7.6,87,0.05,,,0.05,WUHU216HW,2013-01-30 22:08:00,
2013-01-30 17:13:00,65.9,61.8,29.38,NE,45,2.7,7.6,87,0.08,,,0.08,WUHU216HW,2013-01-30 22:13:00,
2013-01-30 17:18:00,65.7,62.0,29.37,ESE,113,1.8,4.9,88,0.10,,,0.10,WUHU216HW,2013-01-30 22:18:00,
2013-01-30 17:23:00,65.3,62.0,29.36,NNE,23,4.9,8.7,89,0.12,,,0.12,WUHU216HW,2013-01-30 22:23:00,
2013-01-30 17:28:00,65.3,62.0,29.36,SSW,203,4.7,10.3,89,0.14,,,0.14,WUHU216HW,2013-01-30 22:28:00,
2013-01-30 17:33:00,65.2,61.8,29.37,North,0,5.4,13.9,89,0.16,,,0.16,WUHU216HW,2013-01-30 22:33:00,
2013-01-30 17:38:00,65.3,62.0,29.38,East,90,6.5,15.7,89,0.17,,,0.17,WUHU216HW,2013-01-30 22:38:00,
2013-01-30 17:43:00,65.5,62.2,29.38,SSE,158,3.1,16.6,89,0.18,,,0.18,WUHU216HW,2013-01-30 22:43:00,
2013-01-30 17:48:00,65.5,62.6,29.38,SSW,203,10.5,16.6,90,0.20,,,0.20,WUHU216HW,2013-01-30 22:48:00,
2013-01-30 17:53:00,65.3,62.0,29.41,West,270,5.6,14.3,89,0.22,,,0.22,WUHU216HW,2013-01-30 22:53:00,
2013-01-30 17:58:00,64.4,60.6,29.42,SW,225,13.4,21.5,87,0.40,,,0.41,WUHU216HW,2013-01-30 22:58:00,
2013-01-30 18:03:00,61.9,59.0,29.39,SW,225,17.0,21.9,90,0.79,,,0.82,WUHU216HW,2013-01-30 23:03:00,
2013-01-30 18:08:00,61.6,59.2,29.39,SSW,203,14.8,22.1,92,0.93,,,0.98,WUHU216HW,2013-01-30 23:08:00,